Oakland, CA

8:21 AM PST on December 12, 2019 (GMT -0800)
Metro Oakland International

Weather History for KOAK - October, 2019

Change the Weather History Date:

Thursday, October 17, 2019

  Actual Average Record
Temperature  
Mean Temperature 62 °F 60 °F  
Max Temperature 70 °F 70 °F 84 °F (2008)
Min Temperature 54 °F 51 °F 44 °F (1949)
Degree Days  
Heating Degree Days 3 5  
Month to date heating degree days 69 67  
Since 1 July heating degree days 99 267  
Cooling Degree Days 0 0  
Month to date cooling degree days 9 12  
Year to date cooling degree days 373 137  
Growing Degree Days 13 (Base 50)    
Moisture  
Dew Point 51 °F    
Average Humidity 66    
Maximum Humidity 87    
Minimum Humidity 44    
Precipitation  
Precipitation T in 0.04 in 0.21 in (2004)
Month to date precipitation T 0.47  
Year to date precipitation 15.94 13.97  
Sea Level Pressure  
Sea Level Pressure 29.95 in    
Wind  
Wind Speed 11 mph (WNW)    
Max Wind Speed 25 mph    
Max Gust Speed 31 mph    
Visibility 10 miles    
Events      
T = Trace of Precipitation, MM = Missing Value Source: NWS Daily Summary

Daily Weather History Graph

Daily Weather History Graph

Search for Another Location

Airport or City:

Astronomy

Oct. 17, 2019 Rise Set
Actual Time 7:18 AM PDT 6:28 PM PDT
Civil Twilight 6:52 AM PDT 6:55 PM PDT
Nautical Twilight 6:22 AM PDT 7:25 PM PDT
Astronomical Twilight 5:51 AM PDT 7:56 PM PDT
Moon 9:07 PM PDT (10/17) 10:53 AM PDT (10/17)
Length of Visible Light 12h 02m
Length of Day
11h 09m
Waning Gibbous, 86% of the Moon is Illuminated
Oct 17
Waning Gibbous
Oct 21
Last Quarter
Oct 27
New
Nov 4
First Quarter
Nov 12
Full

Hourly Weather History & Observations

Time (PDT) Temp. Dew Point Humidity Pressure Visibility Wind Dir Wind Speed Gust Speed Precip Events Conditions
12:17 AM 62.1 °F 54.0 °F 75% 29.91 in 10.0 mi WSW 6.9 mph - N/A   Overcast
12:53 AM 61.0 °F 54.0 °F 78% 29.91 in 10.0 mi West 8.1 mph - N/A   Overcast
1:02 AM 61.0 °F 55.0 °F 81% 29.90 in 10.0 mi West 9.2 mph - N/A   Overcast
1:53 AM 60.1 °F 55.9 °F 86% 29.91 in 10.0 mi West 6.9 mph - N/A   Overcast
2:53 AM 60.1 °F 55.9 °F 86% 29.91 in 10.0 mi West 8.1 mph - N/A   Overcast
3:11 AM 60.1 °F 55.9 °F 86% 29.91 in 10.0 mi West 6.9 mph - N/A   Overcast
3:53 AM 60.1 °F 55.9 °F 86% 29.91 in 10.0 mi West 9.2 mph - 0.00 in   Overcast
4:39 AM 60.1 °F 55.9 °F 86% 29.91 in 10.0 mi West 8.1 mph - 0.00 in   Overcast
4:53 AM 59.0 °F 55.9 °F 90% 29.91 in 10.0 mi WSW 10.4 mph - 0.00 in   Overcast
5:53 AM 57.9 °F 54.0 °F 87% 29.92 in 10.0 mi WNW 8.1 mph - N/A   Partly Cloudy
6:53 AM 57.0 °F 53.1 °F 87% 29.94 in 10.0 mi WNW 9.2 mph - N/A   Partly Cloudy
7:53 AM 57.9 °F 52.0 °F 81% 29.95 in 10.0 mi NW 5.8 mph - N/A   Mostly Cloudy
8:53 AM 61.0 °F 50.0 °F 67% 29.96 in 10.0 mi WNW 9.2 mph - N/A   Scattered Clouds
9:53 AM 62.1 °F 48.9 °F 62% 29.98 in 10.0 mi West 8.1 mph - N/A   Partly Cloudy
10:53 AM 64.9 °F 45.0 °F 48% 29.99 in 10.0 mi West 9.2 mph - N/A   Partly Cloudy
11:53 AM 64.9 °F 46.0 °F 50% 29.99 in 10.0 mi West 9.2 mph - N/A   Partly Cloudy
12:53 PM 66.0 °F 46.9 °F 50% 29.99 in 10.0 mi West 10.4 mph - N/A   Clear
1:53 PM 69.1 °F 48.9 °F 49% 29.97 in 10.0 mi West 16.1 mph - N/A   Clear
2:53 PM 69.1 °F 46.9 °F 45% 29.96 in 10.0 mi WNW 20.7 mph - N/A   Clear
3:53 PM 66.9 °F 48.9 °F 52% 29.96 in 10.0 mi WNW 24.2 mph - N/A   Clear
4:53 PM 66.0 °F 50.0 °F 56% 29.96 in 10.0 mi WNW 19.6 mph - N/A   Clear
5:53 PM 63.0 °F 50.0 °F 63% 29.96 in 10.0 mi WNW 18.4 mph - N/A   Partly Cloudy
6:53 PM 61.0 °F 50.0 °F 67% 29.97 in 10.0 mi WNW 13.8 mph - N/A   Partly Cloudy
7:53 PM 59.0 °F 51.1 °F 75% 29.99 in 10.0 mi NW 3.5 mph - N/A   Partly Cloudy
8:53 PM 59.0 °F 48.9 °F 69% 30.00 in 10.0 mi NW 5.8 mph - N/A   Clear
9:53 PM 59.0 °F 48.0 °F 67% 30.00 in 10.0 mi NW 6.9 mph - N/A   Clear
10:53 PM 59.0 °F 46.9 °F 64% 30.02 in 10.0 mi NW 9.2 mph - N/A   Clear
11:53 PM 57.9 °F 46.9 °F 67% 30.03 in 10.0 mi NNW 6.9 mph - N/A   Clear